This is the latest recevied weather packets stored in our database for station/object KO4APQ. If no packets are shown the sender has not sent any weather packets the latest 10 day(s).
| Time | Temp. | Humidity | Pressure | Rain* | Wind** | Luminosity | Snow |
|---|---|---|---|---|---|---|---|
| 1778134004 | 17.22° C | 97% | 1013 hPa | 1.78 mm | - | 0 W/m² | - |
| 1778133700 | 17.22° C | 97% | 1013.2 hPa | 1.78 mm | - | 0 W/m² | - |
| 1778133395 | 17.22° C | 97% | 1013.4 hPa | 1.27 mm | - | 0 W/m² | - |
| 1778133092 | 17.22° C | 97% | 1013.3 hPa | 4.32 mm | - | 0 W/m² | - |
| 1778132788 | 17.22° C | 97% | 1013.6 hPa | 4.83 mm | - | 0 W/m² | - |
| 1778132485 | 17.22° C | 97% | 1013.7 hPa | 6.6 mm | - | 0 W/m² | - |
| 1778132183 | 17.22° C | 97% | 1013.2 hPa | 4.32 mm | - | 0 W/m² | - |
| 1778131881 | 17.22° C | 97% | 1013.4 hPa | 6.1 mm | - | 0 W/m² | - |
| 1778131579 | 17.78° C | 97% | 1013.7 hPa | 7.11 mm | - | 0 W/m² | - |
| 1778131275 | 17.78° C | 97% | 1014.2 hPa | 7.87 mm | - | 0 W/m² | - |
| 1778130973 | 17.78° C | 97% | 1014.1 hPa | 7.87 mm | - | 0 W/m² | - |
| 1778130669 | 17.78° C | 97% | 1014 hPa | 4.83 mm | - | 0 W/m² | - |
| 1778130366 | 17.78° C | 96% | 1014 hPa | 6.1 mm | - | 0 W/m² | - |
| 1778130063 | 17.78° C | 97% | 1014 hPa | 8.89 mm | - | 0 W/m² | - |
| 1778129759 | 17.78° C | 96% | 1014.4 hPa | 4.32 mm | - | 0 W/m² | - |
| 1778129457 | 17.78° C | 96% | 1014.6 hPa | 1.78 mm | - | 0 W/m² | - |
| 1778129153 | 17.78° C | 96% | 1015 hPa | 7.87 mm | - | 0 W/m² | - |
| 1778128850 | 17.78° C | 96% | 1014.5 hPa | 13.72 mm | - | 0 W/m² | - |
| 1778128545 | 17.78° C | 96% | 1014.2 hPa | 6.1 mm | - | 0 W/m² | - |
| 1778128243 | 17.78° C | 96% | 1014.2 hPa | 0 mm | - | 0 W/m² | - |
| 1778127939 | 17.78° C | 96% | 1013.6 hPa | 1.27 mm | - | 0 W/m² | - |
| 1778127635 | 17.78° C | 96% | 1013.8 hPa | 1.27 mm | - | 0 W/m² | - |
| 1778127332 | 17.78° C | 96% | 1013.5 hPa | 0 mm | - | 0 W/m² | - |
| 1778127029 | 17.78° C | 96% | 1013.4 hPa | 3.05 mm | - | 0 W/m² | - |
| 1778126725 | 17.78° C | 96% | 1013.7 hPa | 4.83 mm | - | 0 W/m² | - |
* Rain latest hour (hover to see other rain measurements)
** Current wind speed in m/s (hover to see current wind gust speed)